ELECTRON KICK STAGE R/B, 62086

Orbit data source: Space-Track

ELECTRON KICK STAGE R/B, 62086 is space debris in SSO originally from a launch on Mon, 25 Nov 2024 UTC launched from the Rocket Lab Launch Complex (RLLC). Debris objects in space refer to the collection of defunct objects orbiting the Earth. Examples of debris include non-operational satellites, rocket bodies, and fragments generated from explosions, collisions, or faulty payload assembly.

Loading next visibility...
Identifier
62086, 2024-219F
Orbit
SSO
Country
Flag of USUS
Related business
Manufacturer
Rocket Lab
Mission
Spacecraft
Bus & Motor
KICK STAGE, CURIE
Mass
~50 kg wet, ~50 kg dry
Launch date (UTC)
2024-11-25 (1 year ago)
Launch vehicle
Unknown
Launch site
Rocket Lab Launch Complex (RLLC)
Object type
Payload
Rocket body
Debris
Shape & HBR
Trunc Cone, 0.7 m
Radar Cross Section
0.760 m², Medium (>0.1 m² and < 1m²)

Expand to show TLE details & history
Last TLE update: 9 hours ago

TLE from 9 hours ago
0 ELECTRON KICK STAGE R/B
1 62086U 24219F   26034.45768965  .00003936  00000-0  34862-3 0  9992
2 62086  97.9740 209.5212 0053228  38.3223 322.1760 14.95770752 64943
Epoch: 2026-02-03T10:59Z
TLE epoch observation values (Epoch: 2026-02-03T10:59:04.385Z)
Latitude
-0.00009°
Longitude
-88.8854°
Altitude
553.835 km
Speed
7.601 km/s
True Right ascension
13h 58m 05s
True Declination
0° 00' 00"
Sunlit
Object was in daylight at epoch
Visualization orbit readout
Latitude
Unknown
Longitude
Unknown
Altitude
Unknown
Speed
Unknown
Apparent Right ascension
Unknown
Apparent Declination
Unknown
Sunlit
N/A
Visualization observer readout
Local Sidereal Time
21:55:55
Azimuth
Unknown
Elevation
Unknown
Doppler factor
Unknown
Orbital elements
Apogee altitude
614.025 km
Perigee altitude
539.984 km
Semi-major axis
6,955.141 km
Eccentricity
0.00532
Inclination
97.974°
RAAN
209.5212°
Arg. of periapsis
38.3223°
True anomaly
321.79998°
Mean anomaly
322.176°
Eccentric anomaly
321.98819°
Mean motion
3.74183 °/min
Orbital period
96.21 mins
BSTAR
0.00034862
Loading maneuver chart data...
Computing Atmospheric mass density...
Loading historical data...
Loading historical data...
Loading historical data...
Loading historical data...
Loading historical data...
Loading historical data...
Loading historical data...

Documentation

Showing up to 5 results
|